Regional Weather Roundup
Issued by NWS

Home | Current Version | Previous Version | Text Only | Print | Product List | Glossary On
Versions: 1 2 3 4 5 6 7 8 9 10 11 12 13 14 15 16 17 18 19 20 21 22 23 24 25 26 27 28 29 30 31 32 33 34 35 36 37 38 39 40 41 42 43 44 45 46 47 48 49 50
000
ASUS46 KLOX 021813
RWRCA

SOUTHERN CALIFORNIA WEATHER ROUNDUP
NATIONAL WEATHER SERVICE OXNARD CALIFORNIA
1100 AM PDT SUN AUG 02 2015

NOTE: "FAIR" INDICATES FEW OR NO CLOUDS BELOW 12,000 FEET WITH NO
SIGNIFICANT WEATHER AND/OR OBSTRUCTIONS TO VISIBILITY.

  -  STATIONS PRECEEDED BY AN ASTERISK (*) ARE NOT NWS OR FAA
     STATIONS AND ARE NOT SUBJECT TO NWS AND FAA QUALITY CONTROL.

CAZ041-042-087-021900-
LA AND ORANGE COUNTY COASTAL AREAS


CITY           SKY/WX    TMP DP  RH WIND       PRES   REMARKS
L.A. DOWNTOWN  SUNNY     78  65  63 CALM      29.91F
L.A. AIRPORT   MOSUNNY   74  64  71 W6        29.93S
LONG BEACH     MOSUNNY   76  64  66 S6        29.92S

CITY           SKY/WX    TMP DP  RH WIND       PRES   REMARKS
AVALON           N/A     72 N/A N/A MISG        N/A
FULLERTON      MOSUNNY   76  64  66 SE6       29.91S
*GETTY CENTER    N/A     72  63  73 S7          N/A
HAWTHORNE      MOSUNNY   76  63  64 CALM      29.92F
*LOS ALAMITOS  PTSUNNY   74  65  75 S7        29.92S
*REDONDO BEACH   N/A     77  65  67 SW6       29.93S
SANTA ANA      CLOUDY    72  64  76 CALM      29.92S
STA MONICA APT MOSUNNY   73  64  73 VRB6      29.93S
TORRANCE       MOSUNNY   79  66  65 NW10      29.93F

$$

CAZ547-548-048-021900-
LA COUNTY VALLEYS AND INLAND EMPIRE


CITY           SKY/WX    TMP DP  RH WIND       PRES   REMARKS
BURBANK        SUNNY     80  63  55 CALM      29.92S
VAN NUYS       SUNNY     81  61  50 CALM      29.92S

CITY           SKY/WX    TMP DP  RH WIND       PRES   REMARKS
CORONA AIRPORT CLEAR     80  65  60 VRB3      29.91F
CHINO          MOSUNNY   82  62  50 VRB3      29.92F
MARCH AFB      SUNNY     83  63  50 NW6       29.93F
*NORTHRIDGE      N/A     81  59  47 VRB1        N/A
ONTARIO        MOSUNNY   81  62  52 VRB7      29.92F
*PASADENA        N/A     79  66  65 E3          N/A
POMONA         SUNNY     77  63  61 W5        29.96S
RIVERSIDE      SUNNY     80  63  55 VRB6      29.91F
SAN BERNARDINO NOT AVBL
*WHITEMAN AP   SUNNY     77  61  57 CALM      29.96F
*WOODLAND HILL   N/A     82  61  47 W2          N/A

$$

CAZ054-055-021900-
LA AND SAN BERNARDINO COUNTY MOUNTAINS


CITY           SKY/WX    TMP DP  RH WIND       PRES   REMARKS
*BIG BEAR AIRP CLEAR     72  39  30 W10       30.27S
SANDBERG       SUNNY     88  31  13 S12G17    30.13S

$$

CAZ028-029-059-060-099-021900-
ANTELOPE VALLEY AND SURROUNDING AREAS


CITY           SKY/WX    TMP DP  RH WIND       PRES   REMARKS
LANCASTER      SUNNY     92  46  20 CALM      29.96F
PALMDALE       SUNNY     90  45  21 VRB3      29.98F

CITY           SKY/WX    TMP DP  RH WIND       PRES   REMARKS
29 PALMS       SUNNY     95  41  15 CALM      29.99F HX  91
BARSTOW/DAGGET SUNNY     94  46  19 MISG      29.92F HX  90
BISHOP         SUNNY     82  53  36 VRB6      30.08F
CHINA LAKE     SUNNY     93  48  21 CALM      29.94F
EDWARDS AFB    MOSUNNY   89  44  21 VRB5      29.94F
MOJAVE         SUNNY     90  46  22 S5        29.99F
NEEDLES        SUNNY    100  53  20 VRB3      29.84F HX  98
VICTORVILLE    SUNNY     90  45  20 CALM      29.99F

$$

CAZ039-040-021900-
VENTURA AND SANTA BARBARA COUNTY COAST


CITY           SKY/WX    TMP DP  RH WIND       PRES   REMARKS
CAMARILLO      SUNNY     79  62  56 VRB5      29.91F
OXNARD AIRPORT SUNNY     73  62  68 W10       29.92S
*POINT MUGU    MOSUNNY   72  64  76 SW9       29.93S
SBA APT/GOLETA SUNNY     74  64  71 SE10      29.91S
*SANTA BARBARA   N/A     75  62  64 CALM      29.99S
*VENTURA         N/A     73  63  70 CALM      29.53S

$$

CAZ044-045-021900-
VENTURA COUNTY VALLEYS


CITY           SKY/WX    TMP DP  RH WIND       PRES   REMARKS
*SIMI VALLEY     N/A     79  65  61 CALM      29.86F
*OJAI            N/A     83  64  52 W1        29.84F
*FILLMORE        N/A     82  67  59 CALM      29.81F

$$

CAZ053-021900-
VENTURA COUNTY MOUNTAINS


CITY           SKY/WX    TMP DP  RH WIND       PRES   REMARKS

$$

CAZ034-035-036-021900-
CENTRAL COAST AND SANTA YNEZ VALLEY


CITY           SKY/WX    TMP DP  RH WIND       PRES   REMARKS
SAN LUIS OBISP SUNNY     73  57  57 NW13      29.96F
SANTA MARIA    MOSUNNY   73  58  59 VRB5      29.97F

CITY           SKY/WX    TMP DP  RH WIND       PRES   REMARKS
*CAL POLY SLO    N/A     72  63  73 S6          N/A
*LOMPOC        PTSUNNY   70  55  60 W10G17    29.98F
*PISMO BEACH     N/A     67  60  79 W7        29.97S
*SANTA YNEZ    CLOUDY    68  55  64 NW3       29.97F

$$

CAZ037-038-051-021900-
SAN LUIS OBISPO COUNTY INTERIOR AND CUYAMA VALLEY


CITY           SKY/WX    TMP DP  RH WIND       PRES   REMARKS
*CUYAMA          N/A     82  48  29 W2        29.85S
PASO ROBLES    SUNNY     76  55  48 N6        29.96F

$$

CAZ032-033-061-021900-
SOUTHERN DESERTS


CITY           SKY/WX    TMP DP  RH WIND       PRES   REMARKS
BLYTHE         SUNNY    102  55  20 VRB3      29.80F HX 100
IMPERIAL       SUNNY    101  53  20 VRB5      29.76F HX  99
PALM SPRINGS   SUNNY    105  48  14 CALM      29.81F HX 101
THERMAL        SUNNY    105  47  14 CALM      29.74F HX 101

$$

ELSEWHERE ACROSS THE WESTERN UNITED STATES AND MEXICO


CITY           SKY/WX    TMP DP  RH WIND       PRES   REMARKS
DENVER, CO     PTSUNNY   90  44  20 E8        30.08F
GRAND CANYON,  PTSUNNY   76  52  43 W8        30.23F
HONOLULU, HI   MOSUNNY   82  66  57 NE8G20    29.92R
KAHULUI, MAUI  MOSUNNY   82  68  61 NE10G21   29.94R
LAKE TAHOE, CA CLOUDY    72  46  39 S3        30.22S
LAS VEGAS, NV  MOSUNNY   92  53  26 VRB3      29.90F
MAMMOTH LAKES, FAIR      70  48  46 NE3       30.27F
MEXICO CITY, M MOSUNNY   73  50  43 NE5       30.28
PHOENIX, AZ    MOSUNNY   98  60  28 VRB7      29.85S HX  98
PORTLAND, OR   PTSUNNY   77  55  46 VRB3      29.93S
RENO, NV       CLOUDY    80  50  34 CALM      30.10S
SALT LAKE CITY PTSUNNY   89  39  17 W7        29.99F
SAN DIEGO, CA  CLOUDY    71  64  78 VRB3      29.94F
SAN FRANCISCO, PTSUNNY   65  56  72 W14       30.00S
SAN JOSE, CA   PTSUNNY   70  57  63 VRB5      29.98F
SEATTLE, WA    PTSUNNY   75  55  49 CALM      29.96F
TIJUANA, MEX   CLOUDY    70  61  73 N6        29.96F

$$

STATION/POSITION TIME  TEMP    WIND        PRES    VSBY  WAVE
                       AIR SEA DIR/SP/G                  HT/PER
                 (UTC) (F)     (DEG/KT/KT) (MB)    (MI)  (FT/S)
POINT ARGUELLO B NOT AVBL
WEST SANTA BARBA 1750   62 64  320/ 19/ 23 1013.3F         4/ 5
POINT CONCEPTION NOT AVBL
EAST SANTA BARBA 1800   68 70  260/  8/  8 1013.5F
SANTA MONICA BAY 1750   69 72   50/  2/  4 1013.2F         3/14


USA.gov is the U.S. government's official web portal to all federal, state and local government web resources and services.